Time,TemperatureF,DewpointF,PressureIn,WindDirection,WindDirectionDegrees,WindSpeedMPH,WindSpeedGustMPH,Humidity,HourlyPrecipIn,Conditions,Clouds,dailyrainin,SoftwareType,DateUTC
2013-01-25 00:00:00,53.4,50.9,30.21,SSE,165,1.0,4.0,91,0.00,,,0.00,meteohub,2013-01-25 08:00:00,
2013-01-25 00:05:00,53.2,50.9,30.21,SSE,165,0.0,4.0,92,0.00,,,0.00,meteohub,2013-01-25 08:05:00,
2013-01-25 00:10:00,53.2,50.7,30.21,SSE,163,1.0,4.0,91,0.00,,,0.00,meteohub,2013-01-25 08:10:00,
2013-01-25 00:15:00,53.2,50.9,30.20,SSE,151,4.0,4.0,92,0.00,,,0.00,meteohub,2013-01-25 08:15:00,
2013-01-25 00:20:00,53.2,50.9,30.20,South,172,2.0,4.0,92,0.00,,,0.00,meteohub,2013-01-25 08:20:00,
2013-01-25 00:25:00,53.1,50.7,30.20,SSE,164,0.0,5.0,92,0.00,,,0.00,meteohub,2013-01-25 08:25:00,
2013-01-25 00:30:00,53.1,50.7,30.20,SSE,163,0.0,5.0,92,0.00,,,0.00,meteohub,2013-01-25 08:30:00,
2013-01-25 00:35:00,53.1,50.7,30.20,SSE,163,0.0,4.0,92,0.00,,,0.00,meteohub,2013-01-25 08:35:00,
2013-01-25 00:40:00,53.1,50.7,30.20,SE,133,1.0,3.0,92,0.00,,,0.00,meteohub,2013-01-25 08:40:00,
2013-01-25 00:45:00,53.1,50.7,30.21,South,170,0.0,3.0,92,0.00,,,0.00,meteohub,2013-01-25 08:45:00,
2013-01-25 00:50:00,53.2,50.9,30.20,South,170,1.0,4.0,92,0.00,,,0.00,meteohub,2013-01-25 08:50:00,
2013-01-25 00:55:00,53.4,51.1,30.21,South,170,0.0,4.0,92,0.00,,,0.00,meteohub,2013-01-25 08:55:00,
2013-01-25 01:00:00,53.6,51.3,30.21,South,170,0.0,4.0,92,0.00,,,0.00,meteohub,2013-01-25 09:00:00,
2013-01-25 01:05:00,53.6,51.1,30.21,South,170,0.0,2.0,91,0.00,,,0.00,meteohub,2013-01-25 09:05:00,
2013-01-25 01:10:00,53.6,51.1,30.21,South,170,0.0,2.0,91,0.00,,,0.00,meteohub,2013-01-25 09:10:00,
2013-01-25 01:15:00,53.4,50.9,30.21,South,170,0.0,1.0,91,0.00,,,0.00,meteohub,2013-01-25 09:15:00,
2013-01-25 01:20:00,53.8,51.3,30.21,South,170,0.0,0.0,91,0.00,,,0.00,meteohub,2013-01-25 09:20:00,
2013-01-25 01:25:00,53.8,51.3,30.21,South,170,1.0,2.0,91,0.00,,,0.00,meteohub,2013-01-25 09:25:00,
2013-01-25 01:30:00,53.6,51.1,30.21,South,170,0.0,2.0,91,0.00,,,0.00,meteohub,2013-01-25 09:30:00,
2013-01-25 01:35:00,53.6,51.1,30.21,South,170,0.0,3.0,91,0.00,,,0.00,meteohub,2013-01-25 09:35:00,
2013-01-25 01:40:00,53.6,51.1,30.22,South,170,0.0,3.0,91,0.00,,,0.00,meteohub,2013-01-25 09:40:00,
2013-01-25 01:45:00,53.6,51.1,30.22,South,170,0.0,3.0,91,0.00,,,0.00,meteohub,2013-01-25 09:45:00,
2013-01-25 02:04:00,53.6,51.3,30.22,South,170,0.0,1.0,92,0.00,,,0.00,meteohub,2013-01-25 10:04:00,
2013-01-25 02:09:00,53.4,51.1,30.22,South,171,1.0,1.0,92,0.00,,,0.00,meteohub,2013-01-25 10:09:00,
2013-01-25 02:14:00,53.2,50.9,30.22,West,269,2.0,2.0,92,0.00,,,0.00,meteohub,2013-01-25 10:14:00,
2013-01-25 02:19:00,53.2,50.9,30.22,NW,326,0.0,3.0,92,0.00,,,0.00,meteohub,2013-01-25 10:19:00,
2013-01-25 02:24:00,53.2,50.9,30.22,NW,326,0.0,4.0,92,0.00,,,0.00,meteohub,2013-01-25 10:24:00,
2013-01-25 02:29:00,53.2,51.3,30.22,NW,326,0.0,4.0,93,0.00,,,0.00,meteohub,2013-01-25 10:29:00,
2013-01-25 02:34:00,53.1,51.1,30.22,NW,326,1.0,4.0,93,0.00,,,0.00,meteohub,2013-01-25 10:34:00,
2013-01-25 02:39:00,53.1,51.1,30.21,NW,326,0.0,1.0,93,0.00,,,0.00,meteohub,2013-01-25 10:39:00,
2013-01-25 02:44:00,53.1,51.1,30.21,NW,326,0.0,2.0,93,0.00,,,0.00,meteohub,2013-01-25 10:44:00,
2013-01-25 02:49:00,53.1,51.1,30.21,NW,326,0.0,2.0,93,0.00,,,0.00,meteohub,2013-01-25 10:49:00,
2013-01-25 02:54:00,53.1,51.4,30.21,NW,326,0.0,1.0,94,0.00,,,0.00,meteohub,2013-01-25 10:54:00,
2013-01-25 02:59:00,53.1,51.4,30.21,ESE,123,2.0,0.0,94,0.00,,,0.00,meteohub,2013-01-25 10:59:00,
2013-01-25 03:04:00,53.1,51.4,30.20,East,82,0.0,2.0,94,0.00,,,0.00,meteohub,2013-01-25 11:04:00,
2013-01-25 03:09:00,53.1,51.4,30.20,East,98,0.0,3.0,94,0.00,,,0.00,meteohub,2013-01-25 11:09:00,
2013-01-25 03:14:00,53.1,51.4,30.19,East,98,0.0,3.0,94,0.00,,,0.00,meteohub,2013-01-25 11:14:00,
2013-01-25 03:19:00,53.1,51.4,30.19,SSE,152,0.0,2.0,94,0.00,,,0.00,meteohub,2013-01-25 11:19:00,
2013-01-25 03:24:00,52.9,51.3,30.19,SSE,157,3.0,4.0,94,0.00,,,0.00,meteohub,2013-01-25 11:24:00,
2013-01-25 03:29:00,52.9,51.3,30.19,SE,138,2.0,4.0,94,0.00,,,0.00,meteohub,2013-01-25 11:29:00,
2013-01-25 03:34:00,52.7,51.1,30.19,SE,136,1.0,4.0,94,0.00,,,0.00,meteohub,2013-01-25 11:34:00,
2013-01-25 03:40:00,52.5,50.9,30.18,SE,136,0.0,4.0,94,0.00,,,0.00,meteohub,2013-01-25 11:40:00,
2013-01-25 03:45:00,52.5,50.9,30.18,SE,146,0.0,4.0,94,0.00,,,0.00,meteohub,2013-01-25 11:45:00,
2013-01-25 03:49:00,52.5,50.9,30.18,SE,146,0.0,5.0,94,0.00,,,0.00,meteohub,2013-01-25 11:49:00,
2013-01-25 03:55:00,52.5,50.9,30.18,SE,134,0.0,5.0,94,0.00,,,0.00,meteohub,2013-01-25 11:55:00,
2013-01-25 04:00:00,52.5,50.9,30.18,SE,134,1.0,5.0,94,0.00,,,0.00,meteohub,2013-01-25 12:00:00,
2013-01-25 04:05:00,52.7,51.1,30.18,SSE,147,0.0,3.0,94,0.00,,,0.00,meteohub,2013-01-25 12:05:00,
2013-01-25 04:10:00,52.5,50.9,30.18,SSE,147,0.0,3.0,94,0.00,,,0.00,meteohub,2013-01-25 12:10:00,
2013-01-25 04:15:00,52.5,51.1,30.19,SSE,147,0.0,3.0,95,0.00,,,0.00,meteohub,2013-01-25 12:15:00,
2013-01-25 04:20:00,52.7,51.3,30.19,SSE,147,0.0,3.0,95,0.00,,,0.00,meteohub,2013-01-25 12:20:00,
2013-01-25 04:27:00,52.5,50.9,30.19,SSE,147,0.0,1.0,94,0.00,,,0.00,meteohub,2013-01-25 12:27:00,
2013-01-25 04:32:00,52.5,51.1,30.19,SSE,147,0.0,0.0,95,0.00,,,0.00,meteohub,2013-01-25 12:32:00,
2013-01-25 04:37:00,52.3,50.9,30.19,SSE,147,0.0,0.0,95,0.00,,,0.00,meteohub,2013-01-25 12:37:00,
2013-01-25 04:42:00,52.7,51.3,30.19,SSE,147,0.0,1.0,95,0.00,,,0.00,meteohub,2013-01-25 12:42:00,
2013-01-25 04:47:00,52.9,51.4,30.18,SSE,147,0.0,2.0,95,0.00,,,0.00,meteohub,2013-01-25 12:47:00,
2013-01-25 04:52:00,52.9,51.4,30.19,SSE,147,0.0,2.0,95,0.00,,,0.00,meteohub,2013-01-25 12:52:00,
2013-01-25 04:57:00,53.1,51.6,30.18,SSE,147,0.0,2.0,95,0.00,,,0.00,meteohub,2013-01-25 12:57:00,
2013-01-25 05:02:00,53.1,51.6,30.18,SE,143,0.0,3.0,95,0.00,,,0.00,meteohub,2013-01-25 13:02:00,
2013-01-25 05:07:00,53.1,51.6,30.18,ENE,66,0.0,3.0,95,0.00,,,0.00,meteohub,2013-01-25 13:07:00,
2013-01-25 05:12:00,53.2,51.8,30.19,NE,40,0.0,3.0,95,0.00,,,0.00,meteohub,2013-01-25 13:12:00,
2013-01-25 05:17:00,53.2,51.6,30.19,NE,40,0.0,4.0,94,0.00,,,0.00,meteohub,2013-01-25 13:17:00,
2013-01-25 05:22:00,53.1,51.4,30.19,NE,41,0.0,4.0,94,0.00,,,0.00,meteohub,2013-01-25 13:22:00,
2013-01-25 05:27:00,53.2,51.6,30.19,SE,136,2.0,4.0,94,0.00,,,0.00,meteohub,2013-01-25 13:27:00,
2013-01-25 05:32:00,53.1,51.4,30.19,ESE,123,0.0,4.0,94,0.00,,,0.00,meteohub,2013-01-25 13:32:00,
2013-01-25 05:37:00,52.9,51.3,30.19,East,80,0.0,3.0,94,0.00,,,0.00,meteohub,2013-01-25 13:37:00,
2013-01-25 05:42:00,52.9,51.3,30.19,East,84,0.0,3.0,94,0.00,,,0.00,meteohub,2013-01-25 13:42:00,
2013-01-25 05:47:00,52.9,51.3,30.19,NE,36,1.0,3.0,94,0.00,,,0.00,meteohub,2013-01-25 13:47:00,
2013-01-25 05:51:00,52.7,51.1,30.19,North,0,1.0,5.0,94,0.00,,,0.00,meteohub,2013-01-25 13:51:00,
2013-01-25 05:56:00,52.5,50.9,30.19,North,5,1.0,5.0,94,0.00,,,0.00,meteohub,2013-01-25 13:56:00,
2013-01-25 06:01:00,52.7,51.1,30.19,NE,41,3.0,5.0,94,0.00,,,0.00,meteohub,2013-01-25 14:01:00,
2013-01-25 06:06:00,52.7,51.1,30.19,NNW,346,1.0,7.0,94,0.00,,,0.00,meteohub,2013-01-25 14:06:00,
2013-01-25 06:11:00,52.7,51.1,30.19,NNE,30,2.0,7.0,94,0.00,,,0.00,meteohub,2013-01-25 14:11:00,
2013-01-25 06:16:00,52.7,51.1,30.19,NNE,28,4.0,7.0,94,0.00,,,0.00,meteohub,2013-01-25 14:16:00,
2013-01-25 06:21:00,52.7,51.3,30.19,NE,44,0.0,6.0,95,0.00,,,0.00,meteohub,2013-01-25 14:21:00,
2013-01-25 06:27:00,52.7,51.3,30.19,ENE,58,5.0,6.0,95,0.00,,,0.00,meteohub,2013-01-25 14:27:00,
2013-01-25 06:32:00,52.7,51.3,30.19,NE,54,0.0,7.0,95,0.00,,,0.00,meteohub,2013-01-25 14:32:00,
2013-01-25 06:36:00,52.5,51.1,30.19,NE,36,4.0,7.0,95,0.00,,,0.00,meteohub,2013-01-25 14:36:00,
2013-01-25 06:41:00,52.7,51.3,30.19,NE,40,1.0,7.0,95,0.00,,,0.00,meteohub,2013-01-25 14:41:00,
2013-01-25 06:47:00,52.7,51.3,30.19,North,9,5.0,7.0,95,0.00,,,0.00,meteohub,2013-01-25 14:47:00,
2013-01-25 06:52:00,52.9,51.4,30.19,NE,41,4.0,7.0,95,0.00,,,0.00,meteohub,2013-01-25 14:52:00,
2013-01-25 06:57:00,52.9,51.4,30.19,NE,36,2.0,7.0,95,0.00,,,0.00,meteohub,2013-01-25 14:57:00,
2013-01-25 07:02:00,53.1,51.6,30.19,NE,49,2.0,8.0,95,0.00,,,0.00,meteohub,2013-01-25 15:02:00,
2013-01-25 07:07:00,53.2,51.8,30.18,NE,38,2.0,8.0,95,0.00,,,0.00,meteohub,2013-01-25 15:07:00,
2013-01-25 07:12:00,53.2,51.8,30.18,NNW,344,2.0,7.0,95,0.00,,,0.00,meteohub,2013-01-25 15:12:00,
2013-01-25 07:17:00,53.2,51.8,30.18,ENE,59,3.0,11.0,95,0.00,,,0.00,meteohub,2013-01-25 15:17:00,
2013-01-25 07:22:00,53.1,51.4,30.18,North,355,1.0,11.0,94,0.00,,,0.00,meteohub,2013-01-25 15:22:00,
2013-01-25 07:27:00,53.1,51.4,30.18,ENE,65,4.0,11.0,94,0.00,,,0.00,meteohub,2013-01-25 15:27:00,
2013-01-25 07:32:00,53.1,51.4,30.18,East,88,6.0,8.0,94,0.00,,,0.00,meteohub,2013-01-25 15:32:00,
2013-01-25 07:37:00,53.1,51.6,30.18,NE,46,2.0,8.0,95,0.00,,,0.00,meteohub,2013-01-25 15:37:00,
2013-01-25 07:42:00,53.1,51.4,30.18,ESE,108,1.0,8.0,94,0.00,,,0.00,meteohub,2013-01-25 15:42:00,
2013-01-25 07:47:00,52.9,51.3,30.18,ENE,71,0.0,7.0,94,0.00,,,0.00,meteohub,2013-01-25 15:47:00,
2013-01-25 07:52:00,52.9,51.4,30.18,North,0,6.0,7.0,95,0.00,,,0.00,meteohub,2013-01-25 15:52:00,
2013-01-25 07:57:00,52.5,50.9,30.18,NNE,28,5.0,7.0,94,0.00,,,0.00,meteohub,2013-01-25 15:57:00,
2013-01-25 08:02:00,52.5,51.1,30.18,NNE,28,1.0,7.0,95,0.00,,,0.00,meteohub,2013-01-25 16:02:00,
2013-01-25 08:07:00,52.5,51.1,30.18,ENE,67,0.0,7.0,95,0.00,,,0.00,meteohub,2013-01-25 16:07:00,
2013-01-25 08:12:00,52.3,50.9,30.18,NE,45,0.0,6.0,95,0.00,,,0.00,meteohub,2013-01-25 16:12:00,
2013-01-25 08:17:00,52.5,51.1,30.18,NNE,16,3.0,3.0,95,0.00,,,0.00,meteohub,2013-01-25 16:17:00,
2013-01-25 08:22:00,53.2,51.8,30.18,East,94,0.0,4.0,95,0.00,,,0.00,meteohub,2013-01-25 16:22:00,
2013-01-25 08:27:00,54.1,52.5,30.18,East,85,2.0,4.0,94,0.00,,,0.00,meteohub,2013-01-25 16:27:00,
2013-01-25 08:32:00,54.9,52.9,30.18,NNE,32,0.0,4.0,93,0.00,,,0.00,meteohub,2013-01-25 16:32:00,
2013-01-25 08:37:00,55.4,53.1,30.19,NNE,17,5.0,5.0,92,0.00,,,0.00,meteohub,2013-01-25 16:37:00,
2013-01-25 08:42:00,55.0,52.5,30.19,NNE,28,3.0,6.0,91,0.00,,,0.00,meteohub,2013-01-25 16:42:00,
2013-01-25 08:47:00,55.0,52.5,30.19,NE,54,1.0,6.0,91,0.00,,,0.00,meteohub,2013-01-25 16:47:00,
2013-01-25 08:52:00,55.0,52.5,30.19,NE,37,1.0,6.0,91,0.00,,,0.00,meteohub,2013-01-25 16:52:00,
2013-01-25 08:57:00,55.0,52.5,30.19,East,84,1.0,7.0,91,0.00,,,0.00,meteohub,2013-01-25 16:57:00,
2013-01-25 09:02:00,55.0,52.5,30.19,ENE,62,0.0,7.0,91,0.00,,,0.00,meteohub,2013-01-25 17:02:00,
2013-01-25 09:07:00,55.2,52.7,30.18,SSE,148,3.0,7.0,91,0.00,,,0.00,meteohub,2013-01-25 17:07:00,
2013-01-25 09:12:00,55.2,52.7,30.18,SSE,150,4.0,9.0,91,0.00,,,0.00,meteohub,2013-01-25 17:12:00,
2013-01-25 09:17:00,55.2,52.3,30.18,East,99,1.0,9.0,90,0.00,,,0.00,meteohub,2013-01-25 17:17:00,
2013-01-25 09:22:00,55.0,52.5,30.19,ESE,122,1.0,5.0,91,0.00,,,0.00,meteohub,2013-01-25 17:22:00,
2013-01-25 09:27:00,55.2,52.7,30.19,SE,130,0.0,5.0,91,0.00,,,0.00,meteohub,2013-01-25 17:27:00,
2013-01-25 09:32:00,55.2,52.7,30.19,East,101,1.0,5.0,91,0.00,,,0.00,meteohub,2013-01-25 17:32:00,
2013-01-25 09:37:00,55.6,52.7,30.19,SE,127,1.0,5.0,90,0.00,,,0.00,meteohub,2013-01-25 17:37:00,
2013-01-25 09:42:00,55.6,52.7,30.19,SE,124,1.0,5.0,90,0.00,,,0.00,meteohub,2013-01-25 17:42:00,
2013-01-25 09:47:00,55.9,53.1,30.19,SE,132,0.0,6.0,90,0.00,,,0.00,meteohub,2013-01-25 17:47:00,
2013-01-25 09:52:00,56.5,53.2,30.19,ESE,118,3.0,6.0,89,0.00,,,0.00,meteohub,2013-01-25 17:52:00,
2013-01-25 09:57:00,57.4,53.8,30.19,SE,133,0.0,6.0,88,0.00,,,0.00,meteohub,2013-01-25 17:57:00,
2013-01-25 10:02:00,58.5,54.3,30.19,SE,127,2.0,5.0,86,0.00,,,0.00,meteohub,2013-01-25 18:02:00,
2013-01-25 10:07:00,58.6,53.8,30.19,SE,140,0.0,6.0,84,0.00,,,0.00,meteohub,2013-01-25 18:07:00,
2013-01-25 10:12:00,58.5,53.6,30.19,SE,135,3.0,6.0,84,0.00,,,0.00,meteohub,2013-01-25 18:12:00,
2013-01-25 10:17:00,58.6,53.4,30.18,ESE,119,1.0,7.0,83,0.00,,,0.00,meteohub,2013-01-25 18:17:00,
2013-01-25 10:22:00,58.8,53.6,30.18,SSW,202,4.0,9.0,83,0.00,,,0.00,meteohub,2013-01-25 18:22:00,
2013-01-25 10:27:00,58.3,53.1,30.18,East,99,2.0,9.0,83,0.00,,,0.00,meteohub,2013-01-25 18:27:00,
2013-01-25 10:32:00,58.5,53.6,30.18,East,100,6.0,9.0,84,0.00,,,0.00,meteohub,2013-01-25 18:32:00,
2013-01-25 10:37:00,58.8,53.6,30.17,NE,51,2.0,9.0,83,0.00,,,0.00,meteohub,2013-01-25 18:37:00,
2013-01-25 10:42:00,59.2,53.6,30.18,East,87,0.0,9.0,82,0.00,,,0.00,meteohub,2013-01-25 18:42:00,
2013-01-25 10:47:00,59.2,53.4,30.19,NE,37,0.0,9.0,81,0.00,,,0.00,meteohub,2013-01-25 18:47:00,
2013-01-25 10:52:00,59.4,53.8,30.18,ESE,123,3.0,9.0,82,0.00,,,0.00,meteohub,2013-01-25 18:52:00,
2013-01-25 10:57:00,59.4,53.8,30.18,East,80,1.0,7.0,82,0.00,,,0.00,meteohub,2013-01-25 18:57:00,
2013-01-25 11:02:00,58.6,53.2,30.19,ENE,63,3.0,8.0,82,0.00,,,0.00,meteohub,2013-01-25 19:02:00,
2013-01-25 11:07:00,58.6,53.4,30.19,East,94,1.0,8.0,83,0.00,,,0.00,meteohub,2013-01-25 19:07:00,
2013-01-25 11:12:00,59.7,54.1,30.18,SE,137,5.0,7.0,82,0.00,,,0.00,meteohub,2013-01-25 19:12:00,
2013-01-25 11:17:00,59.9,53.8,30.19,SSE,148,0.0,6.0,80,0.00,,,0.00,meteohub,2013-01-25 19:17:00,
2013-01-25 11:22:00,60.4,54.0,30.18,SE,137,3.0,6.0,79,0.00,,,0.00,meteohub,2013-01-25 19:22:00,
2013-01-25 11:27:00,60.4,54.3,30.18,ENE,72,1.0,6.0,80,0.00,,,0.00,meteohub,2013-01-25 19:27:00,
2013-01-25 11:32:00,60.6,54.1,30.17,ENE,57,1.0,4.0,79,0.00,,,0.00,meteohub,2013-01-25 19:32:00,
2013-01-25 11:37:00,60.3,53.8,30.18,East,98,0.0,4.0,79,0.00,,,0.00,meteohub,2013-01-25 19:37:00,
2013-01-25 11:42:00,60.4,54.0,30.17,ENE,67,1.0,7.0,79,0.00,,,0.00,meteohub,2013-01-25 19:42:00,
2013-01-25 11:47:00,60.4,54.0,30.17,NNE,19,1.0,7.0,79,0.00,,,0.00,meteohub,2013-01-25 19:47:00,
2013-01-25 11:52:00,61.2,54.7,30.17,NNW,348,1.0,7.0,79,0.00,,,0.00,meteohub,2013-01-25 19:52:00,
2013-01-25 11:57:00,61.0,54.1,30.17,NNW,348,2.0,6.0,78,0.00,,,0.00,meteohub,2013-01-25 19:57:00,
2013-01-25 12:02:00,61.3,54.5,30.16,North,355,2.0,6.0,78,0.00,,,0.00,meteohub,2013-01-25 20:02:00,
2013-01-25 12:07:00,61.0,53.8,30.16,North,11,2.0,6.0,77,0.00,,,0.00,meteohub,2013-01-25 20:07:00,
2013-01-25 12:12:00,61.2,54.0,30.16,NNE,26,2.0,6.0,77,0.00,,,0.00,meteohub,2013-01-25 20:12:00,
2013-01-25 12:17:00,61.0,54.1,30.15,North,355,3.0,6.0,78,0.00,,,0.00,meteohub,2013-01-25 20:17:00,
2013-01-25 12:22:00,61.5,54.3,30.15,North,11,1.0,6.0,77,0.00,,,0.00,meteohub,2013-01-25 20:22:00,
2013-01-25 12:27:00,62.1,54.3,30.14,North,0,2.0,6.0,76,0.00,,,0.00,meteohub,2013-01-25 20:27:00,
2013-01-25 12:32:00,61.9,54.3,30.14,NW,316,5.0,6.0,76,0.00,,,0.00,meteohub,2013-01-25 20:32:00,
2013-01-25 12:37:00,61.5,54.3,30.14,NNW,342,2.0,8.0,77,0.00,,,0.00,meteohub,2013-01-25 20:37:00,
2013-01-25 12:42:00,61.7,54.5,30.14,NNE,19,4.0,8.0,77,0.00,,,0.00,meteohub,2013-01-25 20:42:00,
2013-01-25 12:47:00,61.5,54.0,30.14,NNW,332,3.0,8.0,76,0.00,,,0.00,meteohub,2013-01-25 20:47:00,
2013-01-25 12:52:00,61.5,54.0,30.14,North,355,4.0,8.0,76,0.00,,,0.00,meteohub,2013-01-25 20:52:00,
2013-01-25 12:57:00,61.2,54.0,30.13,North,355,4.0,9.0,77,0.00,,,0.00,meteohub,2013-01-25 20:57:00,
2013-01-25 13:02:00,61.2,54.0,30.13,North,350,1.0,9.0,77,0.00,,,0.00,meteohub,2013-01-25 21:02:00,
2013-01-25 13:07:00,61.3,54.5,30.13,North,355,5.0,8.0,78,0.00,,,0.00,meteohub,2013-01-25 21:07:00,
2013-01-25 13:12:00,61.9,54.7,30.13,NNW,327,4.0,8.0,77,0.00,,,0.00,meteohub,2013-01-25 21:12:00,
2013-01-25 13:17:00,61.9,54.3,30.13,NNW,343,1.0,8.0,76,0.00,,,0.00,meteohub,2013-01-25 21:17:00,
2013-01-25 13:22:00,61.5,54.3,30.13,North,349,5.0,8.0,77,0.00,,,0.00,meteohub,2013-01-25 21:22:00,
2013-01-25 13:27:00,61.9,54.7,30.13,NW,320,4.0,8.0,77,0.00,,,0.00,meteohub,2013-01-25 21:27:00,
2013-01-25 13:32:00,61.9,54.3,30.12,North,5,3.0,8.0,76,0.00,,,0.00,meteohub,2013-01-25 21:32:00,
2013-01-25 13:37:00,62.2,54.5,30.12,North,11,5.0,8.0,76,0.00,,,0.00,meteohub,2013-01-25 21:37:00,
2013-01-25 13:42:00,62.2,54.1,30.12,NNW,339,0.0,8.0,75,0.00,,,0.00,meteohub,2013-01-25 21:42:00,
2013-01-25 13:47:00,62.4,54.7,30.12,North,355,2.0,8.0,76,0.00,,,0.00,meteohub,2013-01-25 21:47:00,
2013-01-25 13:52:00,63.0,54.9,30.12,NNW,342,1.0,7.0,75,0.00,,,0.00,meteohub,2013-01-25 21:52:00,
2013-01-25 13:57:00,62.4,54.3,30.12,NNW,327,1.0,8.0,75,0.00,,,0.00,meteohub,2013-01-25 21:57:00,
2013-01-25 14:02:00,62.2,54.1,30.12,NNW,328,1.0,8.0,75,0.00,,,0.00,meteohub,2013-01-25 22:02:00,
2013-01-25 14:07:00,62.2,54.1,30.12,NW,326,4.0,8.0,75,0.00,,,0.00,meteohub,2013-01-25 22:07:00,
2013-01-25 14:12:00,61.5,53.6,30.12,WNW,300,5.0,6.0,75,0.00,,,0.00,meteohub,2013-01-25 22:12:00,
2013-01-25 14:18:00,60.8,53.6,30.12,NNW,331,7.0,8.0,77,0.00,,,0.00,meteohub,2013-01-25 22:18:00,
2013-01-25 14:23:00,59.9,52.7,30.12,NW,314,8.0,9.0,77,0.00,,,0.00,meteohub,2013-01-25 22:23:00,
2013-01-25 14:28:00,59.4,52.9,30.12,NW,325,5.0,10.0,79,0.00,,,0.00,meteohub,2013-01-25 22:28:00,
2013-01-25 14:33:00,59.4,53.2,30.12,NNW,340,3.0,10.0,80,0.00,,,0.00,meteohub,2013-01-25 22:33:00,
2013-01-25 14:38:00,59.0,53.2,30.12,NW,307,5.0,10.0,81,0.00,,,0.00,meteohub,2013-01-25 22:38:00,
2013-01-25 14:43:00,58.8,53.1,30.11,WNW,296,3.0,10.0,81,0.00,,,0.00,meteohub,2013-01-25 22:43:00,
2013-01-25 14:48:00,59.2,53.4,30.11,NNW,342,2.0,10.0,81,0.00,,,0.00,meteohub,2013-01-25 22:48:00,
2013-01-25 14:53:00,59.5,53.8,30.11,NNW,344,6.0,10.0,81,0.00,,,0.00,meteohub,2013-01-25 22:53:00,
2013-01-25 14:58:00,59.5,53.4,30.11,WNW,293,2.0,8.0,80,0.00,,,0.00,meteohub,2013-01-25 22:58:00,
2013-01-25 15:03:00,59.7,53.6,30.11,NNW,336,2.0,8.0,80,0.00,,,0.00,meteohub,2013-01-25 23:03:00,
2013-01-25 15:08:00,59.5,53.4,30.10,NW,323,5.0,8.0,80,0.00,,,0.00,meteohub,2013-01-25 23:08:00,
2013-01-25 15:13:00,59.2,53.4,30.10,NNW,327,3.0,7.0,81,0.00,,,0.00,meteohub,2013-01-25 23:13:00,
2013-01-25 15:18:00,59.2,53.6,30.10,WNW,302,5.0,7.0,82,0.00,,,0.00,meteohub,2013-01-25 23:18:00,
2013-01-25 15:23:00,58.8,53.4,30.10,WNW,289,4.0,8.0,82,0.00,,,0.00,meteohub,2013-01-25 23:23:00,
2013-01-25 15:28:00,58.5,53.2,30.10,NW,311,3.0,8.0,83,0.00,,,0.00,meteohub,2013-01-25 23:28:00,
2013-01-25 15:33:00,58.6,53.4,30.10,NNW,329,2.0,8.0,83,0.00,,,0.00,meteohub,2013-01-25 23:33:00,
2013-01-25 15:38:00,59.0,53.6,30.10,NW,324,4.0,7.0,82,0.00,,,0.00,meteohub,2013-01-25 23:38:00,
2013-01-25 15:43:00,59.0,53.6,30.09,WNW,297,4.0,6.0,82,0.00,,,0.00,meteohub,2013-01-25 23:43:00,
2013-01-25 15:48:00,59.2,53.4,30.09,WNW,287,1.0,6.0,81,0.00,,,0.00,meteohub,2013-01-25 23:48:00,
2013-01-25 15:53:00,59.5,53.4,30.09,NW,305,2.0,5.0,80,0.00,,,0.00,meteohub,2013-01-25 23:53:00,
2013-01-25 15:58:00,59.5,53.4,30.09,WNW,292,3.0,5.0,80,0.00,,,0.00,meteohub,2013-01-25 23:58:00,
2013-01-25 16:03:00,59.7,53.6,30.09,NNW,342,2.0,4.0,80,0.00,,,0.00,meteohub,2013-01-26 00:03:00,
2013-01-25 16:08:00,59.7,53.2,30.09,NNW,342,0.0,4.0,79,0.00,,,0.00,meteohub,2013-01-26 00:08:00,
2013-01-25 16:13:00,59.7,53.2,30.08,NNW,342,0.0,4.0,79,0.00,,,0.00,meteohub,2013-01-26 00:13:00,
2013-01-25 16:18:00,59.5,53.1,30.09,WNW,301,1.0,3.0,79,0.00,,,0.00,meteohub,2013-01-26 00:18:00,
2013-01-25 16:23:00,59.4,53.2,30.08,WNW,301,0.0,2.0,80,0.00,,,0.00,meteohub,2013-01-26 00:23:00,
2013-01-25 16:28:00,59.4,53.2,30.08,WNW,301,0.0,2.0,80,0.00,,,0.00,meteohub,2013-01-26 00:28:00,
2013-01-25 16:33:00,59.4,53.2,30.08,North,355,1.0,2.0,80,0.00,,,0.00,meteohub,2013-01-26 00:33:00,
2013-01-25 16:38:00,59.5,53.4,30.08,NNW,339,1.0,4.0,80,0.00,,,0.00,meteohub,2013-01-26 00:38:00,
2013-01-25 16:43:00,59.7,53.2,30.08,NNW,329,0.0,4.0,79,0.00,,,0.00,meteohub,2013-01-26 00:43:00,
2013-01-25 16:48:00,59.7,53.2,30.08,North,355,0.0,4.0,79,0.00,,,0.00,meteohub,2013-01-26 00:48:00,
2013-01-25 16:53:00,59.7,53.2,30.07,North,355,3.0,5.0,79,0.00,,,0.00,meteohub,2013-01-26 00:53:00,
2013-01-25 16:58:00,59.7,53.6,30.07,NNE,31,0.0,5.0,80,0.00,,,0.00,meteohub,2013-01-26 00:58:00,
2013-01-25 17:03:00,59.5,53.8,30.07,NNE,17,4.0,5.0,81,0.00,,,0.00,meteohub,2013-01-26 01:03:00,
2013-01-25 17:08:00,59.5,54.0,30.07,North,0,2.0,6.0,82,0.00,,,0.00,meteohub,2013-01-26 01:08:00,
2013-01-25 17:13:00,59.5,54.0,30.07,NNE,21,0.0,6.0,82,0.00,,,0.00,meteohub,2013-01-26 01:13:00,
2013-01-25 17:18:00,59.4,54.1,30.07,North,355,0.0,6.0,83,0.00,,,0.00,meteohub,2013-01-26 01:18:00,
2013-01-25 17:23:00,59.4,54.1,30.07,North,355,0.0,5.0,83,0.00,,,0.00,meteohub,2013-01-26 01:23:00,
2013-01-25 17:28:00,58.6,53.8,30.07,North,355,0.0,5.0,84,0.00,,,0.00,meteohub,2013-01-26 01:28:00,
2013-01-25 17:33:00,58.5,54.0,30.07,ENE,65,0.0,4.0,85,0.00,,,0.00,meteohub,2013-01-26 01:33:00,
2013-01-25 17:38:00,58.3,53.8,30.07,NE,52,0.0,2.0,85,0.00,,,0.00,meteohub,2013-01-26 01:38:00,
2013-01-25 17:43:00,58.5,54.0,30.08,NW,307,0.0,2.0,85,0.00,,,0.00,meteohub,2013-01-26 01:43:00,
2013-01-25 17:48:00,58.5,54.0,30.08,NW,316,0.0,3.0,85,0.00,,,0.00,meteohub,2013-01-26 01:48:00,
2013-01-25 17:53:00,57.9,53.4,30.08,NW,316,0.0,3.0,85,0.00,,,0.00,meteohub,2013-01-26 01:53:00,
2013-01-25 17:58:00,57.6,53.4,30.08,NW,316,0.0,1.0,86,0.00,,,0.00,meteohub,2013-01-26 01:58:00,
2013-01-25 18:03:00,57.2,53.4,30.07,WNW,294,0.0,1.0,87,0.00,,,0.00,meteohub,2013-01-26 02:03:00,
2013-01-25 18:08:00,57.0,53.2,30.07,WNW,294,0.0,2.0,87,0.00,,,0.00,meteohub,2013-01-26 02:08:00,
2013-01-25 18:13:00,57.0,53.4,30.07,WNW,293,2.0,2.0,88,0.00,,,0.00,meteohub,2013-01-26 02:13:00,
2013-01-25 18:18:00,56.8,53.1,30.07,SW,224,0.0,2.0,87,0.00,,,0.00,meteohub,2013-01-26 02:18:00,
2013-01-25 18:23:00,56.8,53.2,30.08,SW,224,2.0,2.0,88,0.00,,,0.00,meteohub,2013-01-26 02:23:00,
2013-01-25 18:28:00,57.4,53.6,30.08,SW,224,0.0,2.0,87,0.00,,,0.00,meteohub,2013-01-26 02:28:00,
2013-01-25 18:33:00,57.7,53.6,30.08,SW,225,0.0,2.0,86,0.00,,,0.00,meteohub,2013-01-26 02:33:00,
2013-01-25 18:38:00,57.9,53.4,30.08,SW,226,0.0,2.0,85,0.00,,,0.00,meteohub,2013-01-26 02:38:00,
2013-01-25 18:43:00,57.6,53.4,30.08,SW,226,0.0,2.0,86,0.00,,,0.00,meteohub,2013-01-26 02:43:00,
2013-01-25 18:48:00,57.0,53.2,30.09,WNW,292,4.0,4.0,87,0.00,,,0.00,meteohub,2013-01-26 02:48:00,
2013-01-25 18:53:00,56.3,52.2,30.09,WNW,288,1.0,5.0,86,0.00,,,0.00,meteohub,2013-01-26 02:53:00,
2013-01-25 18:58:00,55.4,51.6,30.09,WNW,284,1.0,5.0,87,0.00,,,0.00,meteohub,2013-01-26 02:58:00,
2013-01-25 19:03:00,54.9,51.4,30.09,WSW,254,0.0,5.0,88,0.00,,,0.00,meteohub,2013-01-26 03:03:00,
2013-01-25 19:08:00,54.3,51.1,30.09,WNW,292,1.0,5.0,89,0.00,,,0.00,meteohub,2013-01-26 03:08:00,
2013-01-25 19:13:00,54.1,51.3,30.09,WNW,291,3.0,6.0,90,0.00,,,0.00,meteohub,2013-01-26 03:13:00,
2013-01-25 19:18:00,54.1,51.3,30.09,West,279,3.0,6.0,90,0.00,,,0.00,meteohub,2013-01-26 03:18:00,
2013-01-25 19:23:00,54.1,51.3,30.09,WNW,299,0.0,6.0,90,0.00,,,0.00,meteohub,2013-01-26 03:23:00,
2013-01-25 19:28:00,54.3,51.4,30.09,NW,319,1.0,5.0,90,0.00,,,0.00,meteohub,2013-01-26 03:28:00,
2013-01-25 19:33:00,54.5,51.3,30.09,WNW,298,4.0,5.0,89,0.00,,,0.00,meteohub,2013-01-26 03:33:00,
2013-01-25 19:38:00,54.7,51.4,30.09,WNW,296,1.0,5.0,89,0.00,,,0.00,meteohub,2013-01-26 03:38:00,
2013-01-25 19:43:00,54.9,51.6,30.09,WNW,292,0.0,5.0,89,0.00,,,0.00,meteohub,2013-01-26 03:43:00,
2013-01-25 19:48:00,55.6,52.2,30.09,West,260,2.0,5.0,88,0.00,,,0.00,meteohub,2013-01-26 03:48:00,
2013-01-25 19:54:00,55.9,52.2,30.09,SW,225,1.0,4.0,87,0.00,,,0.00,meteohub,2013-01-26 03:54:00,
2013-01-25 19:58:00,56.1,52.0,30.09,WSW,240,2.0,4.0,86,0.00,,,0.00,meteohub,2013-01-26 03:58:00,
2013-01-25 20:03:00,55.2,51.1,30.09,West,268,0.0,4.0,86,0.00,,,0.00,meteohub,2013-01-26 04:03:00,
2013-01-25 20:09:00,54.7,50.9,30.09,SW,221,1.0,5.0,87,0.00,,,0.00,meteohub,2013-01-26 04:09:00,
2013-01-25 20:14:00,54.1,50.7,30.09,SSW,211,2.0,5.0,88,0.00,,,0.00,meteohub,2013-01-26 04:14:00,
2013-01-25 20:19:00,54.1,50.9,30.09,South,183,2.0,5.0,89,0.00,,,0.00,meteohub,2013-01-26 04:19:00,
2013-01-25 20:23:00,54.1,50.9,30.09,NNW,337,3.0,3.0,89,0.00,,,0.00,meteohub,2013-01-26 04:23:00,
2013-01-25 20:28:00,54.0,50.7,30.09,North,355,0.0,4.0,89,0.00,,,0.00,meteohub,2013-01-26 04:28:00,
2013-01-25 20:34:00,53.8,50.5,30.09,North,355,0.0,4.0,89,0.00,,,0.00,meteohub,2013-01-26 04:34:00,
2013-01-25 20:39:00,53.4,50.2,30.08,North,355,0.0,4.0,89,0.00,,,0.00,meteohub,2013-01-26 04:39:00,
2013-01-25 20:44:00,53.4,50.5,30.08,North,355,0.0,2.0,90,0.00,,,0.00,meteohub,2013-01-26 04:44:00,
2013-01-25 20:49:00,53.4,50.5,30.08,NNE,30,0.0,1.0,90,0.00,,,0.00,meteohub,2013-01-26 04:49:00,
2013-01-25 20:54:00,53.4,50.5,30.08,NNE,32,0.0,2.0,90,0.00,,,0.00,meteohub,2013-01-26 04:54:00,
2013-01-25 20:58:00,53.2,50.4,30.08,SE,129,0.0,2.0,90,0.00,,,0.00,meteohub,2013-01-26 04:58:00,
2013-01-25 21:00:00,53.2,50.4,30.08,SE,129,0.0,2.0,90,0.00,,,0.00,meteohub,2013-01-26 05:00:00,
2013-01-25 21:05:00,53.1,50.5,30.08,SE,129,0.0,3.0,91,0.00,,,0.00,meteohub,2013-01-26 05:05:00,
2013-01-25 21:10:00,53.2,50.7,30.08,SE,129,0.0,3.0,91,0.00,,,0.00,meteohub,2013-01-26 05:10:00,
2013-01-25 21:15:00,54.1,51.6,30.08,SE,129,0.0,2.0,91,0.00,,,0.00,meteohub,2013-01-26 05:15:00,
2013-01-25 21:20:00,55.0,51.6,30.09,SE,140,0.0,2.0,88,0.00,,,0.00,meteohub,2013-01-26 05:20:00,
2013-01-25 21:25:00,55.0,50.9,30.09,West,265,2.0,4.0,86,0.00,,,0.00,meteohub,2013-01-26 05:25:00,
2013-01-25 21:31:00,53.8,50.0,30.09,WSW,237,2.0,7.0,87,0.00,,,0.00,meteohub,2013-01-26 05:31:00,
2013-01-25 21:36:00,52.9,49.6,30.09,SSW,202,0.0,7.0,89,0.00,,,0.00,meteohub,2013-01-26 05:36:00,
2013-01-25 21:41:00,52.5,49.6,30.09,ESE,109,0.0,7.0,90,0.00,,,0.00,meteohub,2013-01-26 05:41:00,
2013-01-25 21:46:00,52.3,49.5,30.09,South,173,0.0,3.0,90,0.00,,,0.00,meteohub,2013-01-26 05:46:00,
2013-01-25 21:51:00,52.3,49.8,30.09,SSE,157,0.0,3.0,91,0.00,,,0.00,meteohub,2013-01-26 05:51:00,
2013-01-25 21:56:00,52.3,49.8,30.09,SSE,157,0.0,2.0,91,0.00,,,0.00,meteohub,2013-01-26 05:56:00,
2013-01-25 22:01:00,52.3,49.8,30.09,SSW,196,0.0,2.0,91,0.00,,,0.00,meteohub,2013-01-26 06:01:00,
2013-01-25 22:06:00,52.3,49.8,30.10,SSW,211,0.0,2.0,91,0.00,,,0.00,meteohub,2013-01-26 06:06:00,
2013-01-25 22:11:00,52.0,49.5,30.09,SSW,203,1.0,3.0,91,0.00,,,0.00,meteohub,2013-01-26 06:11:00,
2013-01-25 22:16:00,52.0,49.6,30.09,South,180,0.0,3.0,92,0.00,,,0.00,meteohub,2013-01-26 06:16:00,
2013-01-25 22:21:00,52.0,49.6,30.09,South,180,0.0,3.0,92,0.00,,,0.00,meteohub,2013-01-26 06:21:00,
2013-01-25 22:26:00,52.0,49.6,30.09,South,180,0.0,2.0,92,0.00,,,0.00,meteohub,2013-01-26 06:26:00,
2013-01-25 22:31:00,52.2,49.8,30.09,South,179,0.0,1.0,92,0.00,,,0.00,meteohub,2013-01-26 06:31:00,
2013-01-25 22:36:00,52.3,50.0,30.09,South,179,0.0,2.0,92,0.00,,,0.00,meteohub,2013-01-26 06:36:00,
2013-01-25 22:41:00,52.7,50.4,30.09,South,190,0.0,4.0,92,0.00,,,0.00,meteohub,2013-01-26 06:41:00,
2013-01-25 22:46:00,52.7,50.2,30.09,SSW,197,1.0,4.0,91,0.00,,,0.00,meteohub,2013-01-26 06:46:00,
2013-01-25 22:51:00,52.3,49.8,30.09,ESE,115,1.0,4.0,91,0.00,,,0.00,meteohub,2013-01-26 06:51:00,
2013-01-25 22:56:00,52.3,50.0,30.09,ESE,115,0.0,3.0,92,0.00,,,0.00,meteohub,2013-01-26 06:56:00,
2013-01-25 23:01:00,52.2,49.8,30.09,South,190,3.0,3.0,92,0.00,,,0.00,meteohub,2013-01-26 07:01:00,
2013-01-25 23:06:00,51.8,49.6,30.09,SW,234,1.0,3.0,92,0.00,,,0.00,meteohub,2013-01-26 07:06:00,
2013-01-25 23:11:00,51.6,49.5,30.09,WNW,302,0.0,4.0,92,0.00,,,0.00,meteohub,2013-01-26 07:11:00,
2013-01-25 23:16:00,51.4,49.5,30.09,NW,316,0.0,5.0,93,0.00,,,0.00,meteohub,2013-01-26 07:16:00,
2013-01-25 23:21:00,51.4,49.5,30.09,NW,309,0.0,5.0,93,0.00,,,0.00,meteohub,2013-01-26 07:21:00,
2013-01-25 23:26:00,51.4,49.5,30.09,NW,309,0.0,4.0,93,0.00,,,0.00,meteohub,2013-01-26 07:26:00,
2013-01-25 23:31:00,51.4,49.5,30.09,NW,309,0.0,1.0,93,0.00,,,0.00,meteohub,2013-01-26 07:31:00,
2013-01-25 23:36:00,51.6,49.5,30.09,West,260,1.0,2.0,92,0.00,,,0.00,meteohub,2013-01-26 07:36:00,
2013-01-25 23:41:00,51.6,49.5,30.09,West,265,0.0,2.0,92,0.00,,,0.00,meteohub,2013-01-26 07:41:00,
2013-01-25 23:46:00,51.6,49.5,30.09,West,261,0.0,2.0,92,0.00,,,0.00,meteohub,2013-01-26 07:46:00,
2013-01-25 23:51:00,51.6,49.5,30.09,West,262,0.0,2.0,92,0.00,,,0.00,meteohub,2013-01-26 07:51:00,
2013-01-25 23:56:00,51.4,49.3,30.09,South,181,2.0,3.0,92,0.00,,,0.00,meteohub,2013-01-26 07:56:00,